START_TIME,STEP,MOV.,M35,t_acc.,PL05,t_acc.,PL06,t_acc.,PL07,t_acc.
1979-07-03 15:22:10.360 ,0,0,,0,,0,,0,,0
1979-07-03 15:22:15.160 ,0,0,,0,,0,,0,,0
1979-07-03 15:22:19.960 ,0,0,0.,4.8,1.,4.8,3.,4.8,0.,4.8
1979-07-03 15:22:24.760 ,0,0,0.,4.8,2.,4.8,0.,4.8,1.,4.8
1979-07-03 15:22:29.560 ,0,0,0.,4.8,1.,4.8,0.,4.8,1.,4.8
1979-07-03 15:22:24.760 ,2,0,0.,4.8,4.,4.8,0.,4.8,1.,4.8
1979-07-03 15:22:29.560 ,2,0,0.,4.8,2.,4.8,1.,4.8,0.,4.8
1979-07-03 15:22:34.360 ,2,0,0.,4.8,5.,4.8,1.,4.8,0.,4.8
1979-07-03 15:22:39.160 ,2,0,0.,4.8,4.,4.8,1.,4.8,1.,4.8
1979-07-03 15:22:43.960 ,2,0,0.,4.8,1.,4.8,0.,4.8,0.,4.8
1979-07-03 15:22:48.760 ,2,0,0.,4.8,4.,4.8,3.,4.8,0.,4.8
1979-07-03 15:22:53.560 ,2,0,0.,4.8,3.,4.8,1.,4.8,0.,4.8
1979-07-03 15:22:58.360 ,2,0,0.,4.8,1.,4.8,0.,4.8,1.,4.8
1979-07-03 15:23:03.160 ,2,0,0.,4.8,3.,4.8,0.,4.8,0.,4.8
1979-07-03 15:23:07.960 ,2,0,0.,4.8,0.,4.8,0.,4.8,3.,4.8
1979-07-03 15:23:12.760 ,0,0,,0,,0,,0,,0
1979-07-03 15:23:17.560 ,0,0,,0,,0,,0,,0
1979-07-03 15:23:22.360 ,0,0,,0,,0,,0,,0
1979-07-03 15:23:27.160 ,0,0,,0,,0,,0,,0
1979-07-03 15:23:31.960 ,0,0,,0,,0,,0,,0
1979-07-03 15:23:36.760 ,0,0,,0,,0,,0,,0
1979-07-03 15:23:41.560 ,0,0,,0,,0,,0,,0
1979-07-03 15:23:46.360 ,0,0,,0,,0,,0,,0
1979-07-03 15:23:51.160 ,0,0,,0,,0,,0,,0
1979-07-03 15:23:55.960 ,0,0,,0,,0,,0,,0
1979-07-03 15:24:06.760 ,0,0,,0,,0,,0,,0
1979-07-03 15:24:11.560 ,0,0,,0,,0,,0,,0
1979-07-03 15:24:16.360 ,0,0,0.,4.8,1.,4.8,1.,4.8,0.,4.8
1979-07-03 15:24:21.160 ,0,0,0.,4.8,1.,4.8,0.,4.8,1.,4.8
1979-07-03 15:24:25.960 ,0,0,0.,4.8,2.,4.8,0.,4.8,1.,4.8
1979-07-03 15:24:24.760 ,0,0,0.,4.8,4.,4.8,2.,4.8,1.,4.8
1979-07-03 15:24:29.560 ,0,0,0.,4.8,1.,4.8,0.,4.8,0.,4.8
1979-07-03 15:24:34.360 ,0,0,0.,4.8,1.,4.8,1.,4.8,1.,4.8
1979-07-03 15:24:39.160 ,0,0,0.,4.8,1.,4.8,1.,4.8,1.,4.8
1979-07-03 15:24:43.960 ,0,0,0.,4.8,1.,4.8,0.,4.8,0.,4.8
1979-07-03 15:24:48.760 ,0,0,0.,4.8,1.,4.8,1.,4.8,2.,4.8
1979-07-03 15:24:53.560 ,0,0,0.,4.8,1.,4.8,0.,4.8,0.,4.8
1979-07-03 15:24:58.360 ,0,0,0.,4.8,2.,4.8,1.,4.8,1.,4.8
1979-07-03 15:25:03.160 ,0,0,0.,4.8,2.,4.8,0.,4.8,0.,4.8
1979-07-03 15:25:07.960 ,0,0,0.,4.8,3.,4.8,1.,4.8,1.,4.8
1979-07-03 15:25:12.760 ,0,0,0.,4.8,1.,4.8,2.,4.8,1.,4.8
1979-07-03 15:25:17.560 ,0,0,0.,4.8,1.,4.8,3.,4.8,1.,4.8
1979-07-03 15:25:22.360 ,0,0,0.,4.8,3.,4.8,1.,4.8,0.,4.8
1979-07-03 15:25:27.160 ,0,0,0.,4.8,3.,4.8,0.,4.8,2.,4.8
1979-07-03 15:25:31.960 ,0,0,0.,4.8,4.,4.8,2.,4.8,1.,4.8
1979-07-03 15:25:36.760 ,1,0,0.,4.8,3.,4.8,1.,4.8,1.,4.8
1979-07-03 15:25:41.560 ,1,0,0.,4.8,3.,4.8,0.,4.8,0.,4.8
1979-07-03 15:25:46.360 ,1,0,0.,4.8,2.,4.8,1.,4.8,0.,4.8
1979-07-03 15:25:51.160 ,1,0,0.,4.8,1.,4.8,0.,4.8,0.,4.8
1979-07-03 15:25:55.960 ,1,0,0.,4.8,3.,4.8,1.,4.8,2.,4.8
1979-07-03 15:26:00.760 ,1,0,0.,4.8,2.,4.8,0.,4.8,3.,4.8
1979-07-03 15:26:05.560 ,1,0,0.,4.8,3.,4.8,1.,4.8,1.,4.8
1979-07-03 15:26:10.360 ,1,0,0.,4.8,2.,4.8,1.,4.8,0.,4.8
1979-07-03 15:26:15.160 ,1,0,0.,4.8,6.,4.8,0.,4.8,0.,4.8
1979-07-03 15:26:19.960 ,1,0,0.,4.8,4.,4.8,1.,4.8,0.,4.8
1979-07-03 15:26:24.760 ,2,0,0.,4.8,2.,4.8,0.,4.8,0.,4.8
1979-07-03 15:26:29.560 ,2,0,0.,4.8,3.,4.8,1.,4.8,0.,4.8
1979-07-03 15:26:34.360 ,2,0,0.,4.8,3.,4.8,0.,4.8,1.,4.8
1979-07-03 15:26:39.160 ,2,0,0.,4.8,4.,4.8,0.,4.8,0.,4.8
1979-07-03 15:26:43.960 ,2,0,0.,4.8,0.,4.8,1.,4.8,0.,4.8
1979-07-03 15:26:48.760 ,2,0,0.,4.8,1.,4.8,0.,4.8,3.,4.8
1979-07-03 15:26:53.560 ,2,0,0.,4.8,2.,4.8,1.,4.8,1.,4.8
1979-07-03 15:26:58.360 ,2,0,0.,4.8,2.,4.8,3.,4.8,1.,4.8
1979-07-03 15:27:03.160 ,2,0,0.,4.8,5.,4.8,1.,4.8,1.,4.8
1979-07-03 15:27:07.960 ,2,0,0.,4.8,3.,4.8,0.,4.8,0.,4.8
1979-07-03 15:27:12.760 ,3,0,0.,4.8,0.,4.8,1.,4.8,1.,4.8
1979-07-03 15:27:17.560 ,3,0,0.,4.8,2.,4.8,0.,4.8,0.,4.8
1979-07-03 15:27:22.360 ,3,0,0.,4.8,2.,4.8,1.,4.8,1.,4.8
1979-07-03 15:27:27.160 ,3,0,0.,4.8,2.,4.8,2.,4.8,1.,4.8
1979-07-03 15:27:31.960 ,3,0,0.,4.8,6.,4.8,0.,4.8,0.,4.8
1979-07-03 15:27:36.760 ,3,0,0.,4.8,1.,4.8,2.,4.8,0.,4.8
1979-07-03 15:27:41.560 ,3,0,0.,4.8,2.,4.8,1.,4.8,0.,4.8
1979-07-03 15:27:46.360 ,3,0,0.,4.8,4.,4.8,0.,4.8,0.,4.8
1979-07-03 15:27:51.160 ,3,0,0.,4.8,2.,4.8,2.,4.8,2.,4.8
1979-07-03 15:27:55.960 ,3,0,0.,4.8,2.,4.8,2.,4.8,0.,4.8
1979-07-03 15:28:00.760 ,4,0,1.,4.8,2.,4.8,2.,4.8,2.,4.8
1979-07-03 15:28:05.560 ,4,0,0.,4.8,1.,4.8,0.,4.8,0.,4.8
1979-07-03 15:28:10.360 ,4,0,0.,4.8,4.,4.8,0.,4.8,0.,4.8
1979-07-03 15:28:15.160 ,4,0,0.,4.8,4.,4.8,0.,4.8,0.,4.8
1979-07-03 15:28:19.960 ,4,0,0.,4.8,0.,4.8,2.,4.8,2.,4.8
1979-07-03 15:28:24.760 ,4,0,0.,4.8,4.,4.8,2.,4.8,2.,4.8
1979-07-03 15:28:29.560 ,4,0,0.,4.8,6.,4.8,2.,4.8,2.,4.8
1979-07-03 15:28:34.360 ,4,0,0.,4.8,8.,4.8,3.,4.8,0.,4.8
1979-07-03 15:28:39.160 ,4,0,0.,4.8,5.,4.8,4.,4.8,0.,4.8
1979-07-03 15:28:43.960 ,4,0,0.,4.8,2.,4.8,2.,4.8,1.,4.8
1979-07-03 15:28:48.760 ,5,0,0.,4.8,9.,4.8,2.,4.8,1.,4.8
1979-07-03 15:28:53.560 ,5,0,0.,4.8,6.,4.8,0.,4.8,0.,4.8
1979-07-03 15:28:58.360 ,5,0,0.,4.8,4.,4.8,2.,4.8,2.,4.8
1979-07-03 15:29:03.160 ,5,0,0.,4.8,4.,4.8,0.,4.8,0.,4.8
1979-07-03 15:29:07.960 ,5,0,0.,4.8,2.,4.8,1.,4.8,0.,4.8
1979-07-03 15:29:12.760 ,5,0,0.,4.8,4.,4.8,1.,4.8,1.,4.8
1979-07-03 15:29:17.560 ,5,0,0.,4.8,6.,4.8,0.,4.8,0.,4.8
1979-07-03 15:29:22.360 ,5,0,0.,4.8,5.,4.8,0.,4.8,1.,4.8
1979-07-03 15:29:27.160 ,5,0,0.,4.8,2.,4.8,0.,4.8,0.,4.8
1979-07-03 15:29:31.960 ,5,0,0.,4.8,3.,4.8,1.,4.8,0.,4.8
1979-07-03 15:29:36.760 ,6,0,0.,4.8,6.,4.8,1.,4.8,1.,4.8
1979-07-03 15:29:41.560 ,6,0,0.,4.8,4.,4.8,0.,4.8,0.,4.8
1979-07-03 15:29:46.360 ,6,0,0.,4.8,1.,4.8,2.,4.8,3.,4.8
1979-07-03 15:29:51.160 ,6,0,0.,4.8,7.,4.8,0.,4.8,0.,4.8
1979-07-03 15:29:55.960 ,6,0,0.,4.8,2.,4.8,0.,4.8,0.,4.8
1979-07-03 15:30:00.760 ,6,0,0.,4.8,2.,4.8,0.,4.8,0.,4.8
1979-07-03 15:30:05.560 ,6,0,0.,4.8,2.,4.8,3.,4.8,1.,4.8
1979-07-03 15:30:10.360 ,6,0,0.,4.8,3.,4.8,1.,4.8,0.,4.8
1979-07-03 15:30:15.160 ,6,0,0.,4.8,0.,4.8,1.,4.8,0.,4.8
1979-07-03 15:30:19.960 ,6,0,0.,4.8,1.,4.8,1.,4.8,0.,4.8
1979-07-03 15:30:24.760 ,7,0,0.,4.8,5.,4.8,1.,4.8,1.,4.8
1979-07-03 15:30:29.560 ,7,0,0.,4.8,1.,4.8,0.,4.8,0.,4.8
1979-07-03 15:30:34.360 ,7,0,0.,4.8,0.,4.8,1.,4.8,0.,4.8
1979-07-03 15:30:39.160 ,7,0,0.,4.8,0.,4.8,0.,4.8,0.,4.8
1979-07-03 15:30:43.960 ,7,0,0.,4.8,0.,4.8,0.,4.8,0.,4.8
1979-07-03 15:30:48.760 ,7,0,0.,4.8,0.,4.8,0.,4.8,0.,4.8
1979-07-03 15:30:53.560 ,7,0,0.,4.8,1.,4.8,0.,4.8,0.,4.8
1979-07-03 15:30:58.360 ,7,0,0.,4.8,0.,4.8,0.,4.8,0.,4.8
1979-07-03 15:31:03.160 ,7,0,0.,4.8,1.,4.8,1.,4.8,0.,4.8
1979-07-03 15:31:07.960 ,7,0,0.,4.8,1.,4.8,0.,4.8,0.,4.8
1979-07-03 15:31:12.760 ,3,1,0.,4.8,1.,4.8,0.,4.8,0.,4.8
1979-07-03 15:31:17.560 ,3,1,0.,4.8,4.,4.8,1.,4.8,0.,4.8
1979-07-03 15:31:22.360 ,3,1,0.,4.8,8.,4.8,1.,4.8,2.,4.8
1979-07-03 15:31:27.160 ,3,1,0.,4.8,10.,4.8,3.,4.8,1.,4.8
1979-07-03 15:31:31.960 ,3,1,0.,4.8,5.,4.8,0.,4.8,1.,4.8
1979-07-03 15:31:36.760 ,0,1,0.,4.8,2.,4.8,2.,4.8,1.,4.8
1979-07-03 15:31:41.560 ,0,1,0.,4.8,1.,4.8,0.,4.8,1.,4.8
1979-07-03 15:31:46.360 ,0,1,0.,4.8,1.,4.8,1.,4.8,0.,4.8
1979-07-03 15:31:51.160 ,0,1,0.,4.8,4.,4.8,2.,4.8,0.,4.8
1979-07-03 15:31:55.960 ,0,1,0.,4.8,0.,4.8,0.,4.8,0.,4.8
1979-07-03 15:32:00.760 ,4,1,0.,4.8,4.,4.8,0.,4.8,1.,4.8
1979-07-03 15:32:05.560 ,4,1,0.,4.8,3.,4.8,1.,4.8,1.,4.8
1979-07-03 15:32:10.360 ,4,1,0.,4.8,1.,4.8,0.,4.8,1.,4.8
1979-07-03 15:32:15.160 ,4,1,0.,4.8,0.,4.8,2.,4.8,1.,4.8
1979-07-03 15:32:19.960 ,4,1,0.,4.8,6.,4.8,1.,4.8,0.,4.8
1979-07-03 15:32:24.760 ,7,1,0.,4.8,19.,4.8,0.,4.8,2.,4.8
1979-07-03 15:32:29.560 ,7,1,0.,4.8,10.,4.8,0.,4.8,0.,4.8
1979-07-03 15:32:34.360 ,7,1,0.,4.8,2.,4.8,3.,4.8,0.,4.8
1979-07-03 15:32:39.160 ,7,1,0.,4.8,3.,4.8,0.,4.8,0.,4.8
1979-07-03 15:32:43.960 ,7,1,0.,4.8,1.,4.8,0.,4.8,0.,4.8
1979-07-03 15:32:48.760 ,3,1,0.,4.8,3.,4.8,0.,4.8,0.,4.8
1979-07-03 15:32:53.560 ,3,1,0.,4.8,2.,4.8,1.,4.8,1.,4.8
1979-07-03 15:32:58.360 ,3,1,0.,4.8,5.,4.8,0.,4.8,0.,4.8
1979-07-03 15:33:03.160 ,3,1,0.,4.8,7.,4.8,1.,4.8,0.,4.8
1979-07-03 15:33:07.960 ,3,1,0.,4.8,12.,4.8,0.,4.8,1.,4.8
1979-07-03 15:33:12.760 ,0,1,0.,4.8,3.,4.8,0.,4.8,1.,4.8
1979-07-03 15:33:17.560 ,0,1,0.,4.8,3.,4.8,0.,4.8,0.,4.8
1979-07-03 15:33:22.360 ,0,1,0.,4.8,2.,4.8,0.,4.8,0.,4.8
1979-07-03 15:33:27.160 ,0,1,0.,4.8,2.,4.8,1.,4.8,0.,4.8
1979-07-03 15:33:31.960 ,0,1,0.,4.8,3.,4.8,1.,4.8,0.,4.8
1979-07-03 15:33:36.760 ,4,1,0.,4.8,3.,4.8,0.,4.8,0.,4.8
1979-07-03 15:33:41.560 ,4,1,0.,4.8,5.,4.8,1.,4.8,0.,4.8
1979-07-03 15:33:46.360 ,4,1,0.,4.8,0.,4.8,0.,4.8,2.,4.8
1979-07-03 15:33:51.160 ,4,1,0.,4.8,3.,4.8,0.,4.8,1.,4.8
1979-07-03 15:33:55.960 ,4,1,0.,4.8,11.,4.8,2.,4.8,0.,4.8
1979-07-03 15:34:00.760 ,7,1,0.,4.8,15.,4.8,1.,4.8,0.,4.8
1979-07-03 15:34:05.560 ,7,1,0.,4.8,10.,4.8,1.,4.8,2.,4.8
1979-07-03 15:34:10.360 ,7,1,0.,4.8,3.,4.8,0.,4.8,1.,4.8
1979-07-03 15:34:15.160 ,7,1,0.,4.8,4.,4.8,0.,4.8,0.,4.8
1979-07-03 15:34:19.960 ,7,1,0.,4.8,0.,4.8,0.,4.8,0.,4.8
1979-07-03 15:34:24.760 ,3,1,0.,4.8,1.,4.8,0.,4.8,0.,4.8
1979-07-03 15:34:29.560 ,3,1,0.,4.8,1.,4.8,1.,4.8,1.,4.8
1979-07-03 15:34:34.360 ,3,1,0.,4.8,17.,4.8,2.,4.8,0.,4.8
1979-07-03 15:34:39.160 ,3,1,0.,4.8,17.,4.8,1.,4.8,1.,4.8
1979-07-03 15:34:43.960 ,3,1,0.,4.8,12.,4.8,1.,4.8,1.,4.8
1979-07-03 15:34:48.760 ,0,1,0.,4.8,3.,4.8,1.,4.8,0.,4.8
1979-07-03 15:34:53.560 ,0,1,0.,4.8,2.,4.8,0.,4.8,0.,4.8
1979-07-03 15:34:58.360 ,0,1,0.,4.8,3.,4.8,0.,4.8,1.,4.8
1979-07-03 15:35:03.160 ,0,1,0.,4.8,3.,4.8,0.,4.8,0.,4.8
1979-07-03 15:35:07.960 ,0,1,0.,4.8,3.,4.8,2.,4.8,0.,4.8
1979-07-03 15:35:12.760 ,4,1,0.,4.8,1.,4.8,2.,4.8,0.,4.8
1979-07-03 15:35:17.560 ,4,1,0.,4.8,4.,4.8,0.,4.8,0.,4.8
1979-07-03 15:35:22.360 ,4,1,0.,4.8,3.,4.8,0.,4.8,4.,4.8
1979-07-03 15:35:27.160 ,4,1,0.,4.8,1.,4.8,1.,4.8,0.,4.8
1979-07-03 15:35:31.960 ,4,1,0.,4.8,14.,4.8,1.,4.8,3.,4.8
1979-07-03 15:35:36.760 ,7,1,0.,4.8,23.,4.8,0.,4.8,0.,4.8
1979-07-03 15:35:41.560 ,7,1,0.,4.8,12.,4.8,2.,4.8,0.,4.8
1979-07-03 15:35:46.360 ,7,1,0.,4.8,3.,4.8,3.,4.8,1.,4.8
1979-07-03 15:35:51.160 ,7,1,0.,4.8,0.,4.8,0.,4.8,0.,4.8
1979-07-03 15:35:55.960 ,7,1,0.,4.8,0.,4.8,0.,4.8,0.,4.8
1979-07-03 15:36:00.760 ,3,1,0.,4.8,1.,4.8,0.,4.8,0.,4.8
1979-07-03 15:36:05.560 ,3,1,0.,4.8,6.,4.8,1.,4.8,1.,4.8
1979-07-03 15:36:10.360 ,3,1,0.,4.8,8.,4.8,2.,4.8,0.,4.8
1979-07-03 15:36:15.160 ,3,1,0.,4.8,25.,4.8,1.,4.8,0.,4.8
1979-07-03 15:36:19.960 ,3,1,0.,4.8,9.,4.8,2.,4.8,1.,4.8
1979-07-03 15:36:24.760 ,0,1,0.,4.8,1.,4.8,5.,4.8,1.,4.8
1979-07-03 15:36:29.560 ,0,1,0.,4.8,3.,4.8,1.,4.8,0.,4.8
1979-07-03 15:36:34.360 ,0,1,0.,4.8,4.,4.8,0.,4.8,1.,4.8
1979-07-03 15:36:39.160 ,0,1,0.,4.8,2.,4.8,1.,4.8,0.,4.8
1979-07-03 15:36:43.960 ,0,1,0.,4.8,6.,4.8,1.,4.8,2.,4.8
1979-07-03 15:36:48.760 ,4,1,0.,4.8,2.,4.8,1.,4.8,0.,4.8
1979-07-03 15:36:53.560 ,4,1,0.,4.8,4.,4.8,1.,4.8,1.,4.8
1979-07-03 15:36:58.360 ,4,1,0.,4.8,3.,4.8,1.,4.8,0.,4.8
1979-07-03 15:37:03.160 ,4,1,0.,4.8,2.,4.8,2.,4.8,0.,4.8
1979-07-03 15:37:07.960 ,4,1,0.,4.8,14.,4.8,1.,4.8,1.,4.8
1979-07-03 15:37:12.760 ,7,1,0.,4.8,28.,4.8,2.,4.8,0.,4.8
1979-07-03 15:37:17.560 ,7,1,0.,4.8,7.,4.8,0.,4.8,0.,4.8
1979-07-03 15:37:22.360 ,7,1,0.,4.8,2.,4.8,3.,4.8,1.,4.8
1979-07-03 15:37:27.160 ,7,1,0.,4.8,1.,4.8,0.,4.8,1.,4.8
1979-07-03 15:37:31.960 ,7,1,0.,4.8,0.,4.8,0.,4.8,0.,4.8
1979-07-03 15:37:36.760 ,3,1,0.,4.8,2.,4.8,1.,4.8,1.,4.8
1979-07-03 15:37:41.560 ,3,1,0.,4.8,6.,4.8,2.,4.8,1.,4.8
1979-07-03 15:37:46.360 ,3,1,0.,4.8,7.,4.8,2.,4.8,1.,4.8
1979-07-03 15:37:51.160 ,3,1,0.,4.8,28.,4.8,6.,4.8,3.,4.8
1979-07-03 15:37:55.960 ,3,1,0.,4.8,18.,4.8,4.,4.8,0.,4.8
1979-07-03 15:38:00.760 ,0,1,0.,4.8,0.,4.8,2.,4.8,1.,4.8
1979-07-03 15:38:05.560 ,0,1,0.,4.8,2.,4.8,0.,4.8,0.,4.8
1979-07-03 15:38:10.360 ,0,1,0.,4.8,6.,4.8,2.,4.8,0.,4.8
1979-07-03 15:38:15.160 ,0,1,0.,4.8,3.,4.8,0.,4.8,1.,4.8
1979-07-03 15:38:19.960 ,0,1,0.,4.8,3.,4.8,1.,4.8,0.,4.8
1979-07-03 15:38:24.750 ,4,1,0.,4.8,1.,4.8,1.,4.8,1.,4.8
1979-07-03 15:38:29.550 ,4,1,0.,4.8,1.,4.8,3.,4.8,0.,4.8
1979-07-03 15:38:34.350 ,4,1,0.,4.8,1.,4.8,1.,4.8,0.,4.8
1979-07-03 15:38:39.160 ,4,1,0.,4.8,2.,4.8,1.,4.8,1.,4.8
1979-07-03 15:38:43.960 ,4,1,0.,4.8,18.,4.8,2.,4.8,0.,4.8
1979-07-03 15:38:48.750 ,7,1,0.,4.8,31.,4.8,2.,4.8,0.,4.8
1979-07-03 15:38:53.550 ,7,1,0.,4.8,5.,4.8,1.,4.8,2.,4.8
1979-07-03 15:38:58.350 ,7,1,0.,4.8,5.,4.8,2.,4.8,0.,4.8
1979-07-03 15:39:03.160 ,7,1,0.,4.8,2.,4.8,1.,4.8,0.,4.8
1979-07-03 15:39:07.960 ,7,1,0.,4.8,0.,4.8,0.,4.8,0.,4.8
1979-07-03 15:39:12.750 ,3,1,0.,4.8,2.,4.8,0.,4.8,2.,4.8
1979-07-03 15:39:17.550 ,3,1,0.,4.8,3.,4.8,2.,4.8,0.,4.8
1979-07-03 15:39:22.350 ,3,1,0.,4.8,10.,4.8,4.,4.8,2.,4.8
1979-07-03 15:39:27.160 ,3,1,0.,4.8,25.,4.8,2.,4.8,1.,4.8
1979-07-03 15:39:31.960 ,3,1,0.,4.8,23.,4.8,2.,4.8,0.,4.8
1979-07-03 15:39:36.750 ,0,1,0.,4.8,2.,4.8,1.,4.8,2.,4.8
1979-07-03 15:39:41.550 ,0,1,0.,4.8,1.,4.8,0.,4.8,0.,4.8
1979-07-03 15:39:46.350 ,0,1,0.,4.8,2.,4.8,1.,4.8,0.,4.8
1979-07-03 15:39:51.160 ,0,1,0.,4.8,4.,4.8,2.,4.8,0.,4.8
1979-07-03 15:39:55.960 ,0,1,0.,4.8,4.,4.8,1.,4.8,1.,4.8
1979-07-03 15:40:00.750 ,4,1,0.,4.8,5.,4.8,0.,4.8,0.,4.8
1979-07-03 15:40:05.550 ,4,1,0.,4.8,2.,4.8,0.,4.8,1.,4.8
1979-07-03 15:40:10.350 ,4,1,0.,4.8,0.,4.8,0.,4.8,1.,4.8
1979-07-03 15:40:15.160 ,4,1,0.,4.8,2.,4.8,1.,4.8,1.,4.8
1979-07-03 15:40:19.960 ,4,1,0.,4.8,37.,4.8,2.,4.8,1.,4.8
1979-07-03 15:40:24.750 ,7,1,0.,4.8,31.,4.8,2.,4.8,3.,4.8
1979-07-03 15:40:29.550 ,7,1,0.,4.8,11.,4.8,0.,4.8,1.,4.8
1979-07-03 15:40:34.350 ,7,1,0.,4.8,6.,4.8,0.,4.8,1.,4.8
1979-07-03 15:40:39.160 ,7,1,0.,4.8,1.,4.8,1.,4.8,1.,4.8
1979-07-03 15:40:43.960 ,7,1,0.,4.8,1.,4.8,0.,4.8,0.,4.8
1979-07-03 15:40:48.750 ,3,1,0.,4.8,2.,4.8,0.,4.8,0.,4.8
1979-07-03 15:40:53.550 ,3,1,0.,4.8,11.,4.8,2.,4.8,0.,4.8
1979-07-03 15:40:58.350 ,3,1,0.,4.8,18.,4.8,1.,4.8,0.,4.8
1979-07-03 15:41:03.160 ,3,1,0.,4.8,42.,4.8,3.,4.8,1.,4.8
1979-07-03 15:41:07.960 ,3,1,0.,4.8,24.,4.8,5.,4.8,2.,4.8
1979-07-03 15:41:12.750 ,0,1,0.,4.8,1.,4.8,4.,4.8,1.,4.8
1979-07-03 15:41:17.550 ,0,1,0.,4.8,2.,4.8,3.,4.8,2.,4.8
1979-07-03 15:41:22.350 ,0,1,0.,4.8,2.,4.8,0.,4.8,0.,4.8
1979-07-03 15:41:27.160 ,0,1,0.,4.8,3.,4.8,0.,4.8,0.,4.8
1979-07-03 15:41:31.960 ,0,1,0.,4.8,1.,4.8,0.,4.8,1.,4.8
1979-07-03 15:41:36.750 ,0,0,0.,4.8,1.,4.8,0.,4.8,0.,4.8
1979-07-03 15:41:41.550 ,0,0,0.,4.8,1.,4.8,3.,4.8,2.,4.8
1979-07-03 15:41:46.350 ,0,0,0.,4.8,0.,4.8,0.,4.8,0.,4.8
1979-07-03 15:41:51.160 ,0,0,0.,4.8,2.,4.8,0.,4.8,0.,4.8
1979-07-03 15:41:55.960 ,0,0,0.,4.8,30.,4.8,1.,4.8,0.,4.8
1979-07-03 15:42:00.750 ,0,0,0.,4.8,39.,4.8,4.,4.8,1.,4.8
1979-07-03 15:42:05.550 ,0,0,0.,4.8,17.,4.8,1.,4.8,1.,4.8
1979-07-03 15:42:10.350 ,0,0,0.,4.8,8.,4.8,3.,4.8,0.,4.8
1979-07-03 15:42:15.160 ,0,0,0.,4.8,2.,4.8,4.,4.8,0.,4.8
1979-07-03 15:42:19.960 ,0,0,0.,4.8,1.,4.8,0.,4.8,0.,4.8
1979-07-03 15:42:24.750 ,5,0,0.,4.8,2.,4.8,0.,4.8,3.,4.8
1979-07-03 15:42:29.550 ,5,0,0.,4.8,8.,4.8,1.,4.8,4.,4.8
1979-07-03 15:42:34.350 ,5,0,0.,4.8,36.,4.8,1.,4.8,2.,4.8
1979-07-03 15:42:39.160 ,5,0,0.,4.8,25.,4.8,0.,4.8,1.,4.8
1979-07-03 15:42:43.960 ,5,0,0.,4.8,28.,4.8,0.,4.8,0.,4.8
1979-07-03 15:42:48.750 ,5,0,0.,4.8,19.,4.8,1.,4.8,0.,4.8
1979-07-03 15:42:53.550 ,5,0,0.,4.8,29.,4.8,1.,4.8,0.,4.8
1979-07-03 15:42:58.350 ,5,0,0.,4.8,29.,4.8,1.,4.8,1.,4.8
1979-07-03 15:43:03.160 ,5,0,0.,4.8,28.,4.8,2.,4.8,1.,4.8
1979-07-03 15:43:07.960 ,5,0,0.,4.8,31.,4.8,1.,4.8,1.,4.8
1979-07-03 15:43:12.750 ,4,0,0.,4.8,29.,4.8,0.,4.8,1.,4.8
1979-07-03 15:43:17.550 ,4,0,0.,4.8,20.,4.8,4.,4.8,1.,4.8
1979-07-03 15:43:22.350 ,4,0,0.,4.8,63.,4.8,8.,4.8,2.,4.8
1979-07-03 15:43:27.160 ,4,0,0.,4.8,56.,4.8,5.,4.8,0.,4.8
1979-07-03 15:43:31.960 ,4,0,0.,4.8,72.,4.8,1.,4.8,2.,4.8
1979-07-03 15:43:36.750 ,4,0,0.,4.8,64.,4.8,6.,4.8,1.,4.8
1979-07-03 15:43:41.550 ,4,0,0.,4.8,54.,4.8,2.,4.8,1.,4.8
1979-07-03 15:43:46.350 ,4,0,0.,4.8,64.,4.8,3.,4.8,2.,4.8
1979-07-03 15:43:51.160 ,4,0,0.,4.8,56.,4.8,5.,4.8,0.,4.8
1979-07-03 15:43:55.960 ,4,0,0.,4.8,57.,4.8,4.,4.8,0.,4.8
1979-07-03 15:44:00.750 ,3,0,0.,4.8,70.,4.8,4.,4.8,2.,4.8
1979-07-03 15:44:05.550 ,3,0,0.,4.8,64.,4.8,2.,4.8,2.,4.8
1979-07-03 15:44:10.350 ,3,0,0.,4.8,0.,4.8,4.,4.8,1.,4.8
1979-07-03 15:44:15.160 ,3,0,0.,4.8,3.,4.8,1.,4.8,0.,4.8
1979-07-03 15:44:19.960 ,3,0,0.,4.8,7.,4.8,0.,4.8,1.,4.8
1979-07-03 15:44:24.750 ,3,0,0.,4.8,6.,4.8,0.,4.8,0.,4.8
1979-07-03 15:44:29.550 ,3,0,0.,4.8,3.,4.8,0.,4.8,0.,4.8
1979-07-03 15:44:34.350 ,3,0,0.,4.8,1.,4.8,3.,4.8,1.,4.8
1979-07-03 15:44:39.160 ,3,0,0.,4.8,2.,4.8,0.,4.8,1.,4.8
1979-07-03 15:44:43.960 ,3,0,0.,4.8,3.,4.8,1.,4.8,0.,4.8
1979-07-03 15:44:48.750 ,2,0,0.,4.8,4.,4.8,1.,4.8,0.,4.8
1979-07-03 15:44:53.550 ,2,0,0.,4.8,3.,4.8,1.,4.8,1.,4.8
1979-07-03 15:44:58.350 ,2,0,0.,4.8,2.,4.8,0.,4.8,1.,4.8
1979-07-03 15:45:03.160 ,2,0,0.,4.8,0.,4.8,1.,4.8,3.,4.8
1979-07-03 15:45:07.960 ,2,0,0.,4.8,1.,4.8,0.,4.8,1.,4.8
1979-07-03 15:45:12.750 ,2,0,0.,4.8,4.,4.8,0.,4.8,0.,4.8
1979-07-03 15:45:17.550 ,2,0,0.,4.8,4.,4.8,1.,4.8,0.,4.8
1979-07-03 15:45:22.350 ,2,0,0.,4.8,3.,4.8,2.,4.8,1.,4.8
1979-07-03 15:45:27.160 ,2,0,0.,4.8,2.,4.8,0.,4.8,2.,4.8
1979-07-03 15:45:31.960 ,2,0,0.,4.8,2.,4.8,0.,4.8,0.,4.8
1979-07-03 15:45:36.750 ,1,0,0.,4.8,1.,4.8,2.,4.8,1.,4.8
1979-07-03 15:45:41.550 ,1,0,0.,4.8,3.,4.8,3.,4.8,2.,4.8
1979-07-03 15:45:46.350 ,1,0,0.,4.8,0.,4.8,3.,4.8,1.,4.8
1979-07-03 15:45:51.160 ,1,0,0.,4.8,1.,4.8,1.,4.8,0.,4.8
1979-07-03 15:45:55.960 ,1,0,0.,4.8,2.,4.8,0.,4.8,0.,4.8
1979-07-03 15:46:00.750 ,1,0,0.,4.8,3.,4.8,0.,4.8,0.,4.8
1979-07-03 15:46:05.550 ,1,0,0.,4.8,4.,4.8,2.,4.8,0.,4.8
1979-07-03 15:46:10.350 ,1,0,0.,4.8,2.,4.8,0.,4.8,1.,4.8
1979-07-03 15:46:15.160 ,1,0,0.,4.8,1.,4.8,2.,4.8,1.,4.8
1979-07-03 15:46:19.960 ,1,0,0.,4.8,3.,4.8,1.,4.8,2.,4.8
1979-07-03 15:46:24.750 ,0,0,0.,4.8,1.,4.8,0.,4.8,0.,4.8
1979-07-03 15:46:29.550 ,0,0,0.,4.8,4.,4.8,3.,4.8,1.,4.8
1979-07-03 15:46:34.350 ,0,0,0.,4.8,0.,4.8,0.,4.8,3.,4.8
1979-07-03 15:46:39.160 ,0,0,0.,4.8,2.,4.8,0.,4.8,1.,4.8
1979-07-03 15:46:43.960 ,0,0,0.,4.8,3.,4.8,1.,4.8,0.,4.8
1979-07-03 15:46:48.750 ,0,0,0.,4.8,6.,4.8,2.,4.8,0.,4.8
1979-07-03 15:46:53.550 ,0,0,0.,4.8,2.,4.8,0.,4.8,2.,4.8
1979-07-03 15:46:58.350 ,0,0,0.,4.8,0.,4.8,0.,4.8,0.,4.8
1979-07-03 15:47:03.160 ,0,0,0.,4.8,1.,4.8,1.,4.8,0.,4.8
1979-07-03 15:47:07.960 ,0,0,0.,4.8,2.,4.8,0.,4.8,0.,4.8
1979-07-03 15:47:12.750 ,0,0,0.,4.8,5.,4.8,1.,4.8,0.,4.8
1979-07-03 15:47:17.550 ,0,0,0.,4.8,3.,4.8,0.,4.8,0.,4.8
1979-07-03 15:47:22.350 ,0,0,0.,4.8,3.,4.8,1.,4.8,1.,4.8
1979-07-03 15:47:27.160 ,0,0,0.,4.8,5.,4.8,2.,4.8,1.,4.8
1979-07-03 15:47:31.960 ,0,0,0.,4.8,1.,4.8,1.,4.8,2.,4.8
1979-07-03 15:47:36.750 ,0,0,0.,4.8,3.,4.8,1.,4.8,1.,4.8
1979-07-03 15:47:41.550 ,0,0,0.,4.8,2.,4.8,0.,4.8,0.,4.8
1979-07-03 15:47:46.350 ,0,0,0.,4.8,3.,4.8,0.,4.8,0.,4.8
1979-07-03 15:47:51.160 ,0,0,0.,4.8,3.,4.8,0.,4.8,1.,4.8
1979-07-03 15:47:55.960 ,0,0,0.,4.8,5.,4.8,0.,4.8,0.,4.8
1979-07-03 15:48:00.750 ,1,0,0.,4.8,5.,4.8,0.,4.8,0.,4.8
1979-07-03 15:48:05.550 ,1,0,0.,4.8,4.,4.8,1.,4.8,0.,4.8
1979-07-03 15:48:10.350 ,1,0,0.,4.8,3.,4.8,0.,4.8,0.,4.8
1979-07-03 15:48:15.160 ,1,0,0.,4.8,2.,4.8,1.,4.8,1.,4.8
1979-07-03 15:48:19.960 ,1,0,0.,4.8,3.,4.8,3.,4.8,2.,4.8
1979-07-03 15:48:24.750 ,1,0,0.,4.8,1.,4.8,1.,4.8,1.,4.8
1979-07-03 15:48:29.550 ,1,0,0.,4.8,2.,4.8,0.,4.8,1.,4.8
1979-07-03 15:48:34.350 ,1,0,0.,4.8,1.,4.8,0.,4.8,0.,4.8
1979-07-03 15:48:39.160 ,1,0,0.,4.8,3.,4.8,1.,4.8,0.,4.8
1979-07-03 15:48:43.960 ,1,0,0.,4.8,2.,4.8,1.,4.8,0.,4.8
1979-07-03 15:48:48.750 ,2,0,0.,4.8,2.,4.8,2.,4.8,2.,4.8
1979-07-03 15:48:53.550 ,2,0,0.,4.8,4.,4.8,0.,4.8,1.,4.8
1979-07-03 15:48:58.350 ,2,0,0.,4.8,0.,4.8,1.,4.8,3.,4.8
1979-07-03 15:49:03.160 ,2,0,0.,4.8,1.,4.8,1.,4.8,1.,4.8
1979-07-03 15:49:07.960 ,2,0,0.,4.8,2.,4.8,1.,4.8,0.,4.8
1979-07-03 15:49:12.750 ,2,0,0.,4.8,1.,4.8,0.,4.8,0.,4.8
1979-07-03 15:49:17.550 ,2,0,0.,4.8,2.,4.8,0.,4.8,0.,4.8
1979-07-03 15:49:22.350 ,2,0,0.,4.8,0.,4.8,1.,4.8,0.,4.8
1979-07-03 15:49:27.160 ,2,0,0.,4.8,2.,4.8,0.,4.8,1.,4.8
1979-07-03 15:49:31.960 ,2,0,0.,4.8,0.,4.8,2.,4.8,0.,4.8
1979-07-03 15:49:36.750 ,3,0,0.,4.8,1.,4.8,1.,4.8,0.,4.8
1979-07-03 15:49:41.550 ,3,0,0.,4.8,1.,4.8,0.,4.8,0.,4.8
1979-07-03 15:49:46.350 ,3,0,0.,4.8,5.,4.8,1.,4.8,0.,4.8
1979-07-03 15:49:51.160 ,3,0,0.,4.8,3.,4.8,0.,4.8,2.,4.8
1979-07-03 15:49:55.960 ,3,0,0.,4.8,0.,4.8,1.,4.8,0.,4.8
1979-07-03 15:50:00.750 ,3,0,0.,4.8,3.,4.8,1.,4.8,0.,4.8
1979-07-03 15:50:05.550 ,3,0,0.,4.8,3.,4.8,0.,4.8,0.,4.8
1979-07-03 15:50:10.350 ,3,0,0.,4.8,3.,4.8,1.,4.8,0.,4.8
1979-07-03 15:50:15.160 ,3,0,0.,4.8,1.,4.8,1.,4.8,1.,4.8
1979-07-03 15:50:19.960 ,3,0,0.,4.8,5.,4.8,0.,4.8,0.,4.8
1979-07-03 15:50:24.750 ,4,0,0.,4.8,2.,4.8,1.,4.8,0.,4.8
1979-07-03 15:50:29.550 ,4,0,0.,4.8,6.,4.8,1.,4.8,2.,4.8
1979-07-03 15:50:34.350 ,4,0,0.,4.8,24.,4.8,15.,4.8,1.,4.8
1979-07-03 15:50:39.160 ,4,0,0.,4.8,25.,4.8,20.,4.8,2.,4.8
1979-07-03 15:50:43.960 ,4,0,0.,4.8,32.,4.8,13.,4.8,1.,4.8
1979-07-03 15:50:48.750 ,4,0,0.,4.8,29.,4.8,10.,4.8,2.,4.8
1979-07-03 15:50:53.550 ,4,0,0.,4.8,22.,4.8,23.,4.8,0.,4.8
1979-07-03 15:50:58.350 ,4,0,0.,4.8,22.,4.8,10.,4.8,0.,4.8
1979-07-03 15:51:03.160 ,4,0,0.,4.8,22.,4.8,19.,4.8,5.,4.8
1979-07-03 15:51:07.960 ,4,0,1.,4.8,27.,4.8,10.,4.8,0.,4.8
1979-07-03 15:51:12.750 ,5,0,0.,4.8,18.,4.8,14.,4.8,1.,4.8
1979-07-03 15:51:17.550 ,5,0,0.,4.8,19.,4.8,17.,4.8,0.,4.8
1979-07-03 15:51:22.350 ,5,0,0.,4.8,54.,4.8,3.,4.8,2.,4.8
1979-07-03 15:51:27.160 ,5,0,0.,4.8,34.,4.8,5.,4.8,0.,4.8
1979-07-03 15:51:31.960 ,5,0,0.,4.8,43.,4.8,4.,4.8,2.,4.8
1979-07-03 15:51:36.750 ,5,0,0.,4.8,44.,4.8,4.,4.8,1.,4.8
1979-07-03 15:51:41.550 ,5,0,0.,4.8,40.,4.8,3.,4.8,0.,4.8
1979-07-03 15:51:46.350 ,5,0,0.,4.8,47.,4.8,4.,4.8,1.,4.8
1979-07-03 15:51:51.160 ,5,0,0.,4.8,39.,4.8,3.,4.8,4.,4.8
1979-07-03 15:51:55.960 ,5,0,0.,4.8,49.,4.8,3.,4.8,1.,4.8
1979-07-03 15:52:00.750 ,6,0,0.,4.8,54.,4.8,2.,4.8,1.,4.8
1979-07-03 15:52:05.550 ,6,0,0.,4.8,40.,4.8,3.,4.8,1.,4.8
1979-07-03 15:52:10.350 ,6,0,0.,4.8,61.,4.8,1.,4.8,0.,4.8
1979-07-03 15:52:15.160 ,6,0,0.,4.8,37.,4.8,3.,4.8,1.,4.8
1979-07-03 15:52:19.960 ,6,0,0.,4.8,47.,4.8,1.,4.8,1.,4.8
1979-07-03 15:52:24.750 ,6,0,0.,4.8,33.,4.8,2.,4.8,1.,4.8
1979-07-03 15:52:29.550 ,6,0,0.,4.8,48.,4.8,3.,4.8,0.,4.8
1979-07-03 15:52:34.350 ,6,0,0.,4.8,44.,4.8,3.,4.8,0.,4.8
1979-07-03 15:52:39.160 ,6,0,0.,4.8,45.,4.8,6.,4.8,0.,4.8
1979-07-03 15:52:43.960 ,6,0,0.,4.8,44.,4.8,9.,4.8,0.,4.8
1979-07-03 15:52:48.750 ,7,0,0.,4.8,41.,4.8,2.,4.8,0.,4.8
1979-07-03 15:52:53.550 ,7,0,0.,4.8,46.,4.8,4.,4.8,0.,4.8
1979-07-03 15:52:58.350 ,7,0,0.,4.8,0.,4.8,0.,4.8,0.,4.8
1979-07-03 15:53:03.160 ,7,0,0.,4.8,1.,4.8,0.,4.8,0.,4.8
1979-07-03 15:53:07.960 ,7,0,0.,4.8,0.,4.8,0.,4.8,0.,4.8
1979-07-03 15:53:12.750 ,7,0,0.,4.8,1.,4.8,0.,4.8,1.,4.8
1979-07-03 15:53:17.550 ,7,0,0.,4.8,0.,4.8,1.,4.8,0.,4.8
1979-07-03 15:53:22.350 ,7,0,0.,4.8,1.,4.8,0.,4.8,0.,4.8
1979-07-03 15:53:27.160 ,7,0,0.,4.8,1.,4.8,1.,4.8,1.,4.8
1979-07-03 15:53:31.960 ,7,0,0.,4.8,0.,4.8,1.,4.8,0.,4.8
1979-07-03 15:53:36.750 ,7,0,0.,4.8,0.,4.8,0.,4.8,1.,4.8
1979-07-03 15:53:41.550 ,7,0,0.,4.8,3.,4.8,0.,4.8,0.,4.8
1979-07-03 15:53:46.350 ,7,0,0.,4.8,0.,4.8,0.,4.8,0.,4.8
1979-07-03 15:53:51.160 ,7,0,0.,4.8,1.,4.8,1.,4.8,0.,4.8
1979-07-03 15:53:55.960 ,7,0,0.,4.8,1.,4.8,0.,4.8,0.,4.8
1979-07-03 15:54:00.750 ,7,0,0.,4.8,3.,4.8,0.,4.8,0.,4.8
1979-07-03 15:54:05.550 ,7,0,0.,4.8,0.,4.8,0.,4.8,0.,4.8
1979-07-03 15:54:10.350 ,7,0,0.,4.8,0.,4.8,0.,4.8,0.,4.8
1979-07-03 15:54:15.160 ,7,0,0.,4.8,1.,4.8,0.,4.8,0.,4.8
1979-07-03 15:54:19.960 ,7,0,0.,4.8,1.,4.8,0.,4.8,0.,4.8
1979-07-03 15:54:24.750 ,6,0,0.,4.8,0.,4.8,0.,4.8,1.,4.8
1979-07-03 15:54:29.550 ,6,0,0.,4.8,1.,4.8,0.,4.8,0.,4.8
1979-07-03 15:54:34.350 ,6,0,0.,4.8,24.,4.8,1.,4.8,3.,4.8
1979-07-03 15:54:39.160 ,6,0,0.,4.8,26.,4.8,6.,4.8,1.,4.8
1979-07-03 15:54:43.960 ,6,0,0.,4.8,35.,4.8,3.,4.8,1.,4.8
1979-07-03 15:54:48.750 ,6,0,0.,4.8,31.,4.8,2.,4.8,1.,4.8
1979-07-03 15:54:53.550 ,6,0,0.,4.8,41.,4.8,3.,4.8,4.,4.8
1979-07-03 15:54:58.350 ,6,0,0.,4.8,31.,4.8,3.,4.8,1.,4.8
1979-07-03 15:55:03.160 ,6,0,0.,4.8,36.,4.8,3.,4.8,0.,4.8